STARLINK S

Last updated on June 19, 2020, 12:02 a.m. UTC

1 45746U 20038S   20170.83334491  .03305741  10764-1  72753-2 0  9992
2 45746  53.0018 271.4342 0098386  67.3442 254.5645 15.91365090  1964

Satellite is not in orbit.